GFSGL_500_spd_000.txt.gz
Wind_Speed
32 33 33 34 36 37 35 35 36 36 38 40 40 40 41 42 43 44 45 46 48 48 49 51 50 51 48 47 47 49 48 48 48 43 48 47 54 53 50 56 43 39 45
34 35 35 36 38 39 38 37 37 37 38 40 41 42 43 44 43 45 47 49 50 51 53 51 50 47 46 46 44 46 47 49 48 45 47 49 53 52 54 51 55 49 51
36 36 37 38 38 38 37 37 38 39 40 42 44 44 44 45 44 47 48 51 52 53 51 49 44 41 41 42 42 43 44 46 50 46 46 49 52 54 54 55 52 60 59
35 37 38 37 37 36 38 40 40 41 44 44 45 44 45 44 47 48 49 50 50 50 46 41 39 36 36 36 40 42 42 43 47 46 44 47 50 50 51 56 53 52 53
37 40 37 37 36 39 40 40 42 44 47 48 46 45 46 47 47 45 45 45 46 41 39 38 37 37 36 38 39 39 40 37 41 46 44 45 48 49 48 48 48 44 52
39 39 40 39 38 41 42 43 46 48 50 51 48 44 45 45 44 45 43 42 40 37 36 33 34 36 38 39 42 41 41 42 44 44 42 43 45 47 44 45 43 41 46
40 40 40 40 41 44 45 46 50 51 53 51 47 46 45 42 44 44 44 40 37 32 31 31 33 37 41 43 44 40 44 38 39 35 39 41 44 48 36 44 45 42 40
38 40 41 42 43 44 48 51 52 52 52 53 52 39 49 45 43 43 44 39 37 33 29 28 34 38 40 42 44 43 41 40 43 42 35 39 41 40 35 40 43 42 45
38 40 41 44 45 47 50 52 53 52 54 50 45 47 48 43 40 43 44 39 27 28 29 31 35 37 39 43 45 45 38 30 33 32 33 36 38 37 40 38 42 43 41
40 41 43 46 48 51 53 55 53 52 52 49 47 47 45 42 39 42 30 24 29 23 30 30 33 37 41 40 47 24 26 27 26 32 27 32 34 32 36 37 40 45 42
41 44 47 49 51 53 53 53 52 48 46 45 47 44 40 42 40 36 30 39 34 35 29 31 32 35 37 38 33 22 22 26 21 23 28 31 33 32 34 36 41 32 40
43 47 50 52 53 54 53 52 51 47 45 45 44 40 39 39 39 30 33 27 29 25 25 29 30 31 34 41 27 17 19 23 21 21 26 30 33 32 31 30 30 36 38
44 49 51 51 52 52 53 52 49 44 43 43 40 40 37 39 36 32 25 33 26 23 25 26 26 27 31 37 28 15 18 18 9 20 24 28 34 33 30 30 30 34 37
39 44 53 51 52 54 54 56 48 43 43 40 40 40 39 38 33 26 32 26 22 24 24 22 24 24 30 26 36 15 14 16 11 19 19 26 33 35 32 30 30 33 37
44 49 48 52 54 58 53 48 39 46 43 41 39 39 39 39 32 28 25 20 20 20 21 21 22 20 26 25 31 29 18 15 17 10 20 21 30 36 36 35 34 34 35
52 57 56 59 59 58 49 41 48 46 42 40 40 39 37 36 32 31 27 23 19 19 20 19 19 18 20 21 20 29 37 16 12 15 11 20 30 27 37 37 36 34 31
58 63 62 58 55 49 46 44 42 42 42 41 41 37 36 33 31 34 35 24 26 22 20 18 17 17 16 17 19 19 24 34 20 10 6 16 17 32 29 37 39 41 40
62 60 58 56 54 48 45 45 43 41 40 38 36 35 33 33 33 29 25 22 21 18 16 16 17 15 15 16 18 20 20 18 28 31 21 5 7 19 26 25 37 41 38
56 54 53 50 46 43 42 42 40 37 36 35 34 32 31 31 29 24 23 23 21 23 20 17 17 17 17 17 19 21 21 19 17 18 24 28 14 8 13 23 26 34 37
47 49 46 44 39 40 41 38 35 35 34 32 30 24 26 25 25 25 26 23 23 24 24 22 21 20 20 19 19 20 21 20 19 17 14 19 21 23 12 10 7 27 39
46 45 41 41 39 39 37 35 35 33 33 31 29 27 24 25 20 21 25 28 27 25 22 20 18 19 20 21 20 19 19 19 20 19 18 16 13 14 16 23 14 7 14
46 42 38 37 39 36 35 36 35 35 32 31 26 25 25 25 23 23 22 22 24 22 24 24 22 20 20 20 22 21 20 21 21 21 21 19 18 15 15 15 15 21 18
41 36 35 35 35 35 35 34 35 33 31 31 31 29 28 27 26 23 24 24 24 26 27 26 26 24 23 23 24 24 25 24 24 25 25 24 23 21 18 17 17 15 15
36 32 33 34 35 35 36 34 31 29 30 28 27 27 25 22 23 22 21 22 22 23 25 25 25 26 27 26 27 28 27 26 26 27 26 26 26 24 24 22 21 21 19
30 31 33 35 36 31 30 29 27 25 26 28 29 29 29 27 26 26 27 27 28 28 28 28 29 29 30 29 29 28 27 27 25 25 26 26 26 25 25 24 24 25 25
32 35 36 34 32 27 27 26 28 30 29 29 28 29 29 28 28 28 27 27 27 27 27 27 27 27 27 26 24 23 23 23 23 23 23 25 25 25 24 25 26 26 27

GFSGL_500_spd_003.txt.gz
Wind_Speed
26 27 28 29 26 26 27 29 29 29 30 32 33 35 36 38 40 42 43 44 45 45 44 44 46 44 48 48 48 48 48 50 47 43 45 45 47 45 52 52 53 54 54
28 28 30 30 28 28 29 32 32 31 32 34 36 37 40 42 44 45 45 44 44 44 43 39 43 46 46 40 38 40 41 45 47 43 40 43 44 47 51 52 57 54 50
28 28 30 31 31 31 30 33 33 32 33 36 37 40 43 46 46 45 46 44 43 42 45 45 47 46 41 35 35 38 39 40 43 44 42 40 43 45 48 54 52 57 55
29 29 31 33 33 32 32 33 34 33 36 39 41 44 47 50 50 48 43 45 43 45 45 45 45 45 39 37 36 37 38 39 39 41 43 39 41 48 47 50 53 52 49
30 31 33 33 33 33 34 35 35 36 40 42 46 48 51 52 49 42 43 43 44 45 45 43 42 39 38 36 35 37 38 40 41 36 39 42 42 45 46 48 51 49 51
31 31 33 33 32 34 35 36 38 41 44 46 51 53 55 54 48 39 48 46 46 48 44 44 40 37 35 34 35 36 40 45 42 41 37 39 41 42 45 46 49 50 50
31 32 33 35 35 36 36 38 41 45 47 49 52 54 55 51 48 46 44 43 46 45 47 42 35 32 34 35 35 37 41 48 46 48 39 32 36 45 45 46 47 47 48
33 34 34 35 36 36 38 40 44 48 50 51 52 52 51 49 46 46 41 42 44 41 31 31 30 28 33 35 34 38 41 48 48 45 40 36 30 37 44 45 44 45 45
33 34 35 37 37 38 41 43 46 50 53 53 51 50 51 50 46 42 38 38 41 35 35 35 26 33 32 35 35 36 44 46 39 38 38 31 32 30 38 42 41 43 45
33 36 38 38 38 41 43 46 49 49 50 51 49 48 47 47 43 42 41 41 41 30 30 29 28 29 32 32 34 37 37 38 33 34 34 27 23 32 36 42 42 41 43
36 38 37 38 40 40 41 46 48 50 49 54 44 47 45 40 40 39 41 41 37 35 29 35 26 30 32 30 32 36 36 30 29 29 28 19 24 24 30 40 40 37 42
42 38 38 45 39 38 37 47 48 49 49 43 60 45 43 39 42 40 42 46 38 28 32 34 24 29 30 24 30 32 38 22 22 26 22 18 21 25 29 36 35 35 35
46 44 50 50 43 37 48 45 48 49 47 44 37 34 41 42 41 40 41 41 32 33 34 26 22 27 26 22 27 28 40 23 21 27 15 20 24 25 32 33 34 32 28
23 35 24 29 32 37 39 45 46 45 46 46 45 57 47 41 41 41 41 38 31 29 26 24 21 26 24 20 21 24 35 35 21 22 20 6 15 23 29 32 31 28 29
56 56 53 38 56 58 46 46 45 46 47 45 46 49 47 42 42 40 39 37 33 29 28 26 22 23 23 19 17 21 22 36 37 17 20 4 16 23 27 31 31 31 31
53 59 61 56 64 59 53 50 50 50 48 47 45 45 43 41 39 38 36 33 29 31 31 26 25 24 23 19 16 19 21 21 32 34 19 11 8 16 26 32 35 34 28
56 60 61 62 62 59 55 54 52 52 47 43 42 40 38 37 37 36 34 31 31 29 28 20 20 22 21 18 17 17 18 19 19 30 34 18 11 4 14 29 35 36 40
58 58 59 58 57 54 51 52 51 47 43 40 39 37 36 32 31 32 30 27 25 22 21 19 19 19 19 18 18 18 16 15 16 16 22 33 18 6 16 13 32 37 38
55 53 55 56 55 52 48 46 45 43 40 37 35 35 32 30 29 29 29 26 23 23 23 23 23 24 24 20 19 19 19 16 14 14 15 17 28 11 4 10 14 26 32
46 55 54 52 51 49 46 44 42 40 36 32 33 33 32 32 31 28 27 20 20 24 25 25 25 24 26 23 20 19 18 17 15 14 12 13 13 20 22 8 6 8 27
48 49 47 48 46 43 40 38 37 35 33 33 32 34 32 28 26 23 22 23 22 24 25 28 23 21 22 22 20 22 20 17 17 16 15 13 12 11 10 18 22 4 5
36 42 45 42 37 36 33 34 32 31 32 32 32 32 30 29 28 26 26 26 27 26 23 22 21 21 22 23 22 22 23 21 18 18 17 15 14 12 11 10 10 16 17
41 38 36 38 36 32 30 30 30 30 31 33 31 30 28 26 26 23 22 23 24 24 23 23 23 23 23 24 24 24 24 25 25 22 21 19 17 16 13 12 11 11 11
41 41 38 36 31 28 28 30 33 32 30 31 27 24 24 23 25 27 25 24 24 24 25 25 25 25 25 25 25 26 27 27 27 26 24 23 22 19 17 16 15 14 15
37 32 30 30 30 30 28 30 31 28 23 26 27 27 27 26 25 26 27 26 26 27 28 29 31 30 29 28 27 28 27 27 27 27 26 24 23 22 21 20 19 18 19
32 32 30 30 30 28 25 26 26 28 28 27 26 26 25 24 24 25 25 26 26 25 25 25 25 27 25 24 24 23 23 23 23 25 24 24 23 22 23 22 21 21 22

GFSGL_500_spd_006.txt.gz
Wind_Speed
28 28 30 27 27 27 23 27 29 28 27 25 27 29 33 37 37 38 39 41 41 44 42 43 43 43 46 49 48 49 48 42 33 31 36 40 42 47 49 54 53 50 54
34 32 32 29 30 29 27 26 28 29 30 30 31 33 36 39 41 41 42 43 44 42 40 47 47 47 47 50 48 45 45 42 38 35 35 39 39 42 45 50 55 55 51
34 33 31 31 31 31 30 29 30 32 34 34 34 36 39 41 43 45 46 49 48 44 45 49 49 49 49 49 47 43 40 38 38 36 36 37 41 44 43 45 51 57 52
32 29 31 32 32 33 33 30 32 34 36 35 36 38 41 43 44 46 47 47 45 44 47 49 48 50 52 48 46 40 38 37 38 39 36 38 40 46 45 48 49 55 54
33 32 33 34 34 34 35 33 34 37 38 37 38 40 43 45 47 48 46 47 44 43 46 46 46 50 49 50 43 39 36 36 40 42 41 43 44 44 44 48 47 52 51
36 37 37 36 35 36 38 35 36 38 39 39 40 42 44 46 47 48 47 45 44 44 43 41 46 45 40 35 34 33 34 38 42 44 47 50 50 42 44 47 47 49 50
37 36 35 37 39 37 39 38 39 40 41 41 43 47 45 48 48 46 45 41 40 39 39 41 45 40 38 38 32 35 34 36 41 48 52 48 43 37 41 45 46 47 48
38 36 37 37 40 38 39 41 41 42 40 41 44 47 50 51 47 42 43 38 36 38 39 41 45 36 38 34 37 33 33 35 41 47 52 44 31 20 29 39 39 43 43
37 34 38 39 40 39 41 42 43 42 37 36 45 47 48 47 35 40 35 36 39 41 41 43 37 34 32 32 31 31 29 36 39 47 45 38 38 29 26 32 36 39 37
40 39 41 40 40 42 42 44 42 39 34 41 42 51 43 35 25 31 37 37 40 40 42 43 37 33 35 33 30 28 27 36 40 39 37 36 39 36 25 28 28 41 42
42 43 44 45 42 46 46 45 43 35 37 42 51 38 49 42 47 36 39 39 38 40 41 38 29 34 30 30 28 25 27 27 33 30 31 32 37 23 18 23 26 31 42
41 42 46 58 56 52 52 44 39 33 39 38 41 44 44 42 42 44 44 41 40 39 38 33 31 32 30 28 26 24 25 25 36 29 27 30 35 17 20 21 24 32 36
43 48 48 51 46 30 38 37 41 37 47 42 43 43 44 45 43 42 41 40 39 37 35 33 30 30 29 26 25 23 23 26 28 38 23 26 29 22 18 20 23 32 39
40 45 44 45 51 49 34 28 37 45 46 47 43 43 44 44 41 40 40 38 37 37 34 32 29 29 29 26 25 23 22 23 24 31 35 21 23 9 17 17 19 27 36
43 45 51 55 52 54 49 45 48 46 45 45 43 42 40 40 40 38 37 35 36 36 34 32 31 29 30 26 27 23 22 22 25 24 36 31 16 13 13 15 20 22 35
46 48 53 57 53 60 58 53 47 45 47 46 45 42 41 42 39 36 34 32 33 34 31 31 30 27 22 22 24 22 21 22 21 23 23 38 24 11 8 20 22 22 29
52 56 47 53 62 56 54 54 51 53 52 51 51 49 45 41 37 33 30 29 31 32 30 28 23 19 19 18 20 21 21 19 19 20 20 23 35 9 2 21 22 26 30
59 47 61 53 50 51 49 53 50 51 54 53 51 47 42 38 35 30 28 31 31 31 28 26 23 24 22 23 22 22 22 20 17 17 18 16 21 28 6 1 20 28 39
57 55 60 62 54 48 50 49 52 53 51 47 43 40 37 33 31 30 30 31 29 29 25 23 22 23 21 21 22 23 25 24 19 15 15 16 14 16 21 14 3 15 32
41 46 49 59 57 53 52 54 54 50 44 41 39 38 33 30 31 30 32 28 25 25 24 24 24 25 26 22 22 22 22 22 20 17 15 15 15 12 12 20 10 7 22
53 44 44 50 37 36 41 41 40 37 37 35 36 32 31 30 30 31 30 29 28 29 29 28 27 25 21 20 22 22 22 21 20 20 19 16 15 14 10 9 14 8 5
49 40 34 33 31 32 33 35 37 36 34 33 33 31 31 31 30 31 29 29 30 29 29 27 27 25 24 23 22 22 22 22 21 20 20 20 17 16 13 10 9 8 17
42 43 45 39 36 34 37 34 32 31 29 29 31 32 31 29 28 27 25 24 25 25 25 25 24 23 22 23 22 21 21 23 23 23 22 22 19 17 16 14 11 10 8
42 41 40 36 30 31 28 27 26 30 31 30 27 24 23 25 26 29 28 26 27 27 28 28 28 29 28 27 26 26 25 25 25 25 25 23 21 20 19 19 17 15 14
37 34 33 29 27 28 28 28 28 31 29 25 24 23 23 25 26 27 28 26 26 27 28 28 29 31 32 31 29 26 25 26 25 24 25 24 23 22 21 21 21 20 19
28 27 24 25 28 29 28 28 29 30 27 24 25 27 27 26 23 22 25 26 25 27 27 29 29 27 27 26 24 22 19 19 20 20 21 21 22 22 22 22 22 22 21

GFSGL_500_spd_009.txt.gz
Wind_Speed
26 28 28 30 31 32 30 29 27 28 32 29 29 28 29 31 33 35 36 38 40 41 42 42 41 42 43 47 47 45 46 44 44 40 39 39 42 39 39 42 49 53 53
26 29 30 32 33 33 33 32 30 31 30 30 30 30 30 32 35 37 39 41 43 43 41 42 42 45 45 44 43 44 47 49 47 44 35 37 38 42 42 42 42 48 56
25 27 29 30 31 32 35 34 32 33 32 32 33 32 34 35 38 40 40 42 43 43 43 45 45 47 44 42 41 45 49 51 48 39 31 34 35 39 40 40 41 45 49
33 32 32 36 34 34 37 33 37 36 34 34 35 36 37 38 40 44 44 45 46 44 43 43 41 40 41 43 44 45 41 39 38 37 35 34 37 38 40 44 43 46 45
36 36 35 38 35 33 39 45 41 42 34 44 38 38 39 38 41 43 45 47 46 46 40 39 38 37 42 45 47 44 39 41 37 36 36 36 37 41 44 47 49 52 51
36 38 38 34 31 36 35 37 45 46 38 40 42 41 41 38 40 43 43 49 48 39 36 36 36 39 43 45 47 38 40 41 37 40 37 37 39 44 45 48 50 50 52
39 40 43 48 33 44 38 40 48 51 44 45 46 44 38 39 43 52 32 41 35 32 32 37 38 41 44 45 41 37 36 36 37 35 35 40 45 49 48 40 42 48 50
47 44 42 31 39 40 49 49 46 50 45 48 48 45 37 40 40 36 41 38 27 37 37 38 40 43 45 43 40 36 36 35 36 35 38 44 47 52 41 32 38 45 48
39 44 41 43 42 44 47 48 51 54 54 43 48 46 39 38 39 37 48 39 47 41 43 41 42 44 44 41 34 35 34 31 34 32 36 43 49 50 43 38 38 45 48
43 45 44 42 41 42 43 46 52 65 58 43 45 41 37 36 36 43 44 46 45 44 44 41 41 42 41 38 35 36 26 28 30 32 33 41 48 46 44 43 44 29 38
48 45 45 43 42 41 44 52 54 58 55 36 40 44 41 41 38 41 42 48 49 48 45 40 42 40 37 35 32 29 26 27 27 30 33 35 43 39 39 41 28 23 20
46 46 44 39 39 43 43 37 44 40 19 39 45 39 41 35 40 44 46 47 45 43 39 38 41 39 33 31 29 28 27 25 26 29 35 34 39 33 35 34 26 18 19
46 46 43 42 41 39 38 34 38 43 56 39 36 49 35 36 42 44 44 44 42 40 36 36 36 36 32 30 30 28 28 25 28 29 33 33 43 28 28 23 25 21 19
42 42 42 41 42 39 37 50 50 49 42 57 52 46 40 42 42 40 38 39 36 32 32 31 33 32 30 31 32 29 29 26 28 27 31 32 43 26 27 25 16 18 21
37 38 38 39 50 37 45 55 53 54 57 55 46 43 43 42 38 35 35 32 29 29 29 30 31 30 30 30 29 29 25 24 26 25 28 29 37 33 24 19 10 13 17
46 45 46 40 51 51 48 57 55 56 51 45 45 39 42 40 35 33 33 30 28 28 26 29 31 31 30 25 22 21 21 21 22 22 24 25 27 37 26 17 6 12 13
47 54 50 57 53 50 53 50 55 54 49 52 45 44 45 42 39 36 33 31 28 26 28 30 31 29 28 23 25 24 24 22 21 21 23 23 24 27 32 15 15 8 14
54 55 54 54 53 49 48 47 47 46 50 43 49 52 48 44 40 35 34 33 30 27 29 30 28 28 27 24 23 21 23 23 22 22 25 23 22 21 26 30 16 5 13
56 57 54 52 53 43 44 45 44 48 45 41 43 42 40 36 33 34 34 32 28 28 29 29 28 27 27 27 24 24 23 22 20 19 20 20 21 20 21 21 27 8 5
50 54 54 50 48 52 54 47 39 43 39 36 36 39 42 38 37 37 35 33 31 30 30 29 29 30 29 29 26 23 22 20 21 20 19 19 20 20 18 19 18 20 10
45 48 49 50 51 49 46 45 38 33 33 37 37 40 40 38 37 36 36 35 34 33 30 29 29 29 30 28 26 24 22 20 20 21 20 18 18 18 19 17 16 13 20
43 44 44 44 41 41 41 42 42 38 33 39 40 40 37 37 36 36 34 32 30 28 27 27 26 25 24 22 22 21 22 22 21 20 20 19 20 19 18 16 17 15 11
39 39 40 40 40 39 40 39 38 38 38 38 32 31 34 36 37 34 26 22 23 25 26 26 27 27 26 25 24 23 23 23 22 21 21 21 20 21 20 19 17 16 15
36 36 35 33 29 30 30 28 28 30 32 33 32 32 35 33 31 30 26 25 27 27 27 27 27 28 28 28 28 28 28 27 27 26 24 24 24 21 20 20 20 17 17
31 31 30 26 23 25 25 26 28 30 32 32 31 32 32 29 27 28 29 28 27 26 25 26 27 27 27 28 29 29 28 26 24 23 23 23 23 24 22 21 21 22 19
24 23 22 22 25 26 27 29 29 30 31 29 27 28 29 28 28 27 28 27 25 27 28 26 26 25 24 23 21 21 21 19 18 19 21 21 21 23 24 23 22 22 22

GFSGL_500_spd_015.txt.gz
Wind_Speed
6 10 15 20 23 25 28 27 28 30 30 28 24 24 27 26 25 26 29 31 30 29 29 30 30 30 31 32 36 39 37 39 38 38 42 45 50 53 51 48 42 42 44
10 15 18 21 23 25 22 34 37 27 36 32 29 33 29 27 28 31 30 31 33 33 30 30 29 33 36 35 37 38 39 39 41 41 45 47 48 54 51 46 39 41 42
12 16 19 22 27 24 35 41 32 39 36 38 33 33 23 27 27 26 32 33 33 35 28 29 29 29 35 37 38 37 38 40 41 44 46 47 47 48 47 44 45 44 41
17 20 23 26 30 35 38 49 41 53 49 35 31 25 23 23 28 34 38 37 32 30 28 40 36 33 37 42 38 37 41 43 43 49 47 47 46 45 46 43 41 42 41
18 24 26 30 33 36 40 47 48 52 45 27 30 31 25 24 39 35 40 40 43 40 36 26 24 32 37 38 38 41 41 43 47 46 47 46 46 43 44 41 39 37 37
21 25 28 32 35 39 44 44 44 50 60 40 27 28 23 29 35 35 39 38 38 33 24 22 30 36 41 40 42 42 43 44 46 44 45 47 44 44 43 42 37 36 33
27 28 31 34 38 42 48 44 42 46 38 38 43 31 31 33 36 26 28 27 37 35 28 30 36 39 41 42 41 43 44 45 46 44 45 47 44 44 35 36 38 36 37
32 34 37 39 43 46 48 48 48 44 44 45 50 43 35 32 31 33 28 23 31 35 31 28 31 37 41 41 42 45 45 44 45 45 46 46 45 41 35 37 37 37 36
39 40 41 41 44 47 49 47 44 45 48 51 50 45 35 33 31 24 17 33 34 29 40 39 36 38 41 41 43 45 44 45 45 45 46 45 42 40 39 38 39 42 41
48 48 47 47 48 37 44 47 51 48 45 47 37 33 29 29 30 31 29 30 37 39 43 39 39 40 41 40 43 44 42 43 43 43 45 44 41 39 40 40 42 39 45
53 51 50 50 45 43 40 46 53 51 46 43 41 43 29 38 42 35 33 42 44 40 36 38 41 39 39 40 43 41 43 45 42 42 43 41 40 39 40 41 42 43 46
62 53 57 52 46 45 43 48 52 48 44 40 36 28 30 40 41 41 36 35 41 36 36 41 41 39 39 41 41 39 42 39 39 42 40 39 38 36 36 37 38 42 45
54 56 53 54 52 49 49 54 34 33 35 39 35 38 44 43 41 43 42 38 31 33 39 39 40 40 39 40 38 37 37 38 39 36 32 32 31 29 30 30 34 39 38
56 46 47 53 54 51 50 42 40 37 40 42 41 43 47 45 40 42 40 36 34 37 41 40 40 39 38 35 36 36 35 37 36 32 30 30 28 27 28 28 31 35 36
41 49 55 55 49 45 44 44 44 41 44 45 47 46 45 39 33 35 33 36 35 41 40 37 38 36 34 34 35 35 35 33 33 30 29 30 29 29 30 30 32 33 35
48 47 50 50 47 46 49 47 45 45 46 45 47 44 39 35 38 41 42 38 41 38 36 34 33 33 33 34 34 34 31 28 28 27 28 28 27 27 28 29 29 30 30
44 46 48 48 48 50 51 51 49 46 42 40 37 35 37 39 36 36 35 40 38 36 35 33 32 32 32 32 32 32 29 27 28 26 26 27 27 26 26 25 26 27 27
46 50 52 53 57 54 50 50 49 47 42 40 36 37 34 33 31 31 34 38 36 33 31 28 28 29 30 31 32 31 29 28 29 28 26 26 26 23 23 22 23 23 23
49 48 48 49 48 46 46 46 44 41 38 38 39 36 33 34 32 34 37 38 35 32 31 29 28 27 29 30 30 30 29 27 25 25 24 23 23 22 21 20 20 20 20
46 47 48 45 40 40 43 41 39 40 39 40 38 35 35 34 33 34 34 36 35 34 32 28 28 27 27 27 28 26 24 22 21 22 22 21 20 20 20 19 19 19 19
44 40 40 42 43 42 41 43 42 39 36 34 33 33 31 27 25 27 29 26 26 28 29 27 25 23 22 22 22 22 22 21 20 20 20 20 19 19 19 18 17 17 17
39 40 40 41 38 39 39 35 33 30 32 32 28 27 23 25 28 29 31 30 27 27 26 24 23 23 23 24 23 24 23 22 23 23 22 22 21 21 21 20 16 15 14
41 41 41 40 40 38 35 33 32 29 28 25 22 22 24 27 29 29 29 27 26 25 24 23 24 24 25 24 23 23 22 23 23 23 23 23 23 24 23 22 19 15 13
31 31 31 31 30 27 25 23 23 22 20 20 22 24 25 23 23 23 23 23 22 23 23 24 24 24 25 24 23 23 25 25 25 25 25 24 23 22 22 21 20 17 15
22 22 23 22 22 21 19 17 18 19 21 22 22 19 19 20 22 22 23 24 24 25 25 25 25 25 26 25 25 24 22 23 23 21 20 19 19 19 20 20 19 17 15
21 21 21 21 20 20 21 20 21 22 21 18 18 19 19 19 20 21 21 22 23 24 24 23 24 24 24 24 22 22 20 19 19 17 16 16 16 16 17 18 18 17 15

GFSGL_500_spd_021.txt.gz
Wind_Speed
14 14 13 14 13 14 10 11 16 17 20 20 27 28 28 37 48 45 43 39 33 34 31 29 27 28 31 28 31 33 35 32 32 38 39 37 37 37 38 40 38 41 43
17 15 15 15 14 14 14 17 23 21 22 25 28 30 33 42 29 36 28 24 33 32 40 33 35 37 33 34 31 31 36 38 40 33 34 36 37 40 42 44 42 45 49
17 17 18 17 18 19 22 22 21 24 29 31 35 34 30 25 29 35 35 29 26 38 40 38 38 35 36 36 35 37 38 35 32 32 26 35 40 41 44 46 45 48 54
22 22 19 19 21 23 23 21 24 29 28 33 36 35 29 26 26 33 34 34 31 25 31 36 38 37 33 31 31 34 33 31 35 39 44 48 47 45 46 49 49 52 56
25 21 22 23 22 19 22 24 27 31 36 36 38 37 34 31 33 35 36 37 33 28 25 33 35 27 25 28 29 31 35 38 43 46 52 46 46 48 54 55 52 56 50
25 25 25 21 23 23 24 28 31 36 39 43 43 42 38 36 37 39 39 37 31 29 29 30 35 31 31 27 29 32 36 40 46 48 51 50 55 57 55 55 54 53 48
27 25 26 25 25 24 27 31 35 39 41 41 42 41 42 45 40 40 37 37 26 24 28 36 27 28 34 38 37 35 37 43 45 48 51 51 53 55 54 50 49 49 45
26 26 25 25 27 29 32 36 39 43 49 44 46 46 42 41 42 40 38 39 30 32 30 33 32 33 35 37 39 42 42 46 48 50 52 52 53 54 51 50 46 46 41
28 29 24 26 31 33 36 41 44 47 53 55 55 48 44 43 41 42 36 32 35 34 32 34 33 36 39 42 46 48 50 50 52 51 51 49 51 51 50 49 45 43 41
35 33 36 36 38 39 41 44 47 51 53 56 56 48 45 41 41 34 36 38 34 32 35 41 44 41 42 41 45 46 49 50 52 53 51 51 50 48 45 42 41 42 40
38 41 40 40 42 43 47 50 54 56 57 59 60 50 47 46 39 34 37 39 37 37 41 44 46 42 43 44 47 48 50 52 53 54 54 53 50 48 45 44 43 41 39
44 47 45 46 40 47 45 49 54 56 57 59 58 54 47 41 39 39 40 40 41 43 45 46 48 46 44 42 46 48 50 51 53 54 52 48 44 41 39 40 39 39 41
48 51 55 43 42 46 46 49 51 54 56 57 54 55 48 46 43 40 41 41 43 41 43 43 46 45 46 48 52 52 52 51 50 47 43 41 40 39 38 37 36 37 37
51 55 50 45 44 46 49 53 53 54 55 57 56 54 52 48 48 49 46 44 43 43 42 41 45 53 53 52 52 49 47 44 45 43 41 41 40 38 36 34 35 36 35
51 47 47 47 46 51 54 55 54 53 53 50 51 52 55 54 49 47 44 45 46 44 42 42 48 53 51 49 45 43 42 41 41 40 40 41 37 36 35 34 36 36 34
47 48 48 52 53 54 57 58 58 57 59 57 55 54 53 52 48 50 47 43 41 41 44 47 51 50 50 47 47 41 38 36 37 41 41 37 35 34 34 34 36 35 33
46 51 54 57 59 58 60 59 56 56 58 54 52 52 51 51 49 42 40 41 41 43 46 47 46 45 45 43 39 35 37 37 37 36 36 36 35 35 34 33 32 32 30
46 52 54 58 60 62 61 61 59 55 51 50 49 49 47 42 42 43 42 41 41 43 43 42 41 36 33 32 33 34 32 33 35 35 35 34 33 32 29 29 29 27 27
48 50 51 56 57 56 57 59 56 52 48 48 46 42 42 42 43 41 39 38 38 38 38 35 31 32 33 33 34 34 33 32 32 31 30 28 26 26 26 26 25 24 24
48 50 53 53 52 51 51 50 50 50 48 44 42 43 42 40 36 36 31 32 34 32 28 29 31 32 31 30 30 30 30 29 28 28 28 27 25 26 26 26 26 25 25
51 52 50 49 49 45 46 47 43 40 42 41 41 33 32 36 35 32 34 32 29 27 27 27 26 26 26 26 26 25 25 26 27 27 26 25 25 25 26 27 27 27 26
46 44 44 44 42 39 39 40 38 36 37 37 33 30 29 28 25 24 25 24 25 25 25 24 25 25 26 26 26 25 26 26 26 26 25 25 26 27 28 28 27 26 27
39 39 40 35 36 37 38 37 33 31 31 26 20 20 22 23 23 22 22 23 22 23 24 24 24 24 24 26 26 26 26 26 25 25 25 25 25 25 26 26 26 26 26
37 35 36 34 33 32 32 29 28 28 28 26 23 24 24 22 24 23 21 19 21 20 21 22 23 25 27 27 26 26 26 24 23 23 21 21 22 22 21 21 21 21 22
34 33 32 31 28 28 27 26 29 29 29 28 26 27 26 24 22 19 18 19 18 19 19 21 22 23 25 24 24 24 25 24 24 23 22 20 20 20 20 19 19 18 18
32 31 31 29 28 29 31 32 32 30 29 28 28 26 25 23 20 18 20 19 19 19 20 21 22 23 23 24 24 23 24 25 25 23 21 19 17 16 15 15 16 16 16

GFSGL_500_spd_024.txt.gz
Wind_Speed
15 15 18 18 14 9 7 9 10 13 15 13 15 19 22 24 19 23 26 31 29 30 26 24 34 36 31 31 37 38 34 37 33 35 39 41 39 35 38 39 38 37 37
16 15 15 15 11 11 11 11 18 19 13 15 16 21 25 27 22 27 27 31 34 32 29 28 34 36 38 39 44 41 40 40 37 35 39 43 43 38 36 34 36 41 44
14 12 12 10 11 13 14 16 15 14 18 20 22 26 30 30 29 30 32 35 36 36 38 33 30 32 38 40 45 43 40 39 36 32 33 37 34 39 43 47 51 53 52
19 15 14 14 13 13 16 15 14 13 18 22 26 31 33 31 34 35 36 38 39 37 36 35 30 25 27 34 35 38 34 35 37 35 35 36 38 42 47 51 54 56 56
18 17 14 16 15 14 15 16 16 18 21 27 33 37 41 40 41 43 41 44 38 37 33 37 35 33 30 30 30 32 35 37 39 38 41 44 47 48 49 54 55 56 54
19 21 20 19 17 16 18 18 18 20 25 30 34 41 46 49 50 49 44 45 41 38 35 33 30 31 34 36 36 32 33 39 39 41 42 44 50 51 55 55 57 60 57
23 20 20 19 16 18 19 18 21 25 28 32 38 43 50 50 51 54 46 41 38 36 30 29 33 33 40 40 33 34 36 40 43 50 49 51 51 54 57 57 58 60 59
27 24 21 19 17 19 20 19 24 29 32 38 42 46 50 54 54 54 48 44 43 37 31 33 32 32 36 36 38 41 45 43 47 49 53 53 52 54 57 58 59 58 54
30 28 24 22 22 25 25 27 29 33 37 41 44 49 52 54 55 57 48 47 43 37 38 36 37 34 36 39 44 46 48 46 46 49 52 51 54 56 56 57 57 56 48
33 32 30 27 28 29 31 33 36 39 41 41 44 47 53 54 56 53 49 46 39 39 41 39 38 40 42 46 46 44 48 48 51 53 50 53 55 56 56 58 54 46 43
36 33 32 29 30 32 35 37 44 35 36 42 46 48 52 55 56 53 46 45 43 39 39 40 43 45 47 47 47 49 52 48 47 52 55 58 57 55 53 48 42 39 38
38 34 31 32 34 38 40 46 53 32 42 46 49 49 51 53 53 47 42 42 46 45 43 43 42 43 45 45 48 48 53 46 51 56 57 51 48 45 44 43 41 40 39
38 37 38 37 40 41 48 55 36 39 43 45 49 50 53 53 52 50 48 48 48 47 44 41 43 45 46 48 47 51 52 55 58 55 49 45 42 41 40 39 37 36 35
41 38 39 43 45 47 50 51 44 45 47 49 52 55 56 57 57 54 52 50 49 42 42 48 45 45 42 47 50 51 53 56 52 48 45 40 39 39 39 39 36 36 35
41 45 48 51 50 51 47 49 46 51 52 55 56 58 57 54 53 54 51 49 47 48 46 43 43 45 45 46 47 49 49 48 45 40 39 39 41 41 39 38 37 36 35
47 48 53 52 50 50 52 49 48 52 56 57 58 59 54 53 53 52 52 51 49 44 43 44 45 46 46 46 46 45 40 37 34 35 37 37 37 37 38 37 36 35 34
50 54 51 50 48 46 48 44 51 55 58 59 55 52 53 53 53 52 50 47 44 45 45 45 44 43 42 40 38 35 37 38 39 38 37 37 36 35 33 32 30 29 30
48 45 51 52 52 42 38 51 55 60 55 48 50 49 49 49 50 50 46 44 43 41 38 36 35 36 33 31 34 36 36 35 34 34 34 33 32 30 29 28 27 28 29
42 38 47 50 52 58 43 57 60 57 50 48 47 46 47 46 45 46 44 40 39 38 33 31 29 28 30 30 29 29 30 30 30 30 31 31 31 31 29 29 29 29 29
52 48 53 57 53 47 51 57 55 51 44 43 44 43 41 40 40 40 37 37 34 30 26 23 25 26 27 26 27 28 28 27 26 27 28 28 28 28 27 27 28 28 28
54 54 49 31 45 49 47 50 47 44 42 40 38 39 37 36 36 30 26 25 23 24 22 22 22 22 23 25 25 26 27 28 27 27 28 28 28 28 28 28 30 30 30
60 38 41 44 45 45 45 44 40 39 38 36 35 33 32 29 24 23 24 25 24 22 19 19 21 23 22 22 24 26 27 27 27 26 25 25 26 25 26 26 27 28 27
29 33 38 38 40 38 38 37 38 36 32 31 31 31 28 28 28 27 26 26 22 18 18 19 19 20 20 21 23 24 25 25 26 27 26 25 25 25 25 24 24 23 23
32 35 34 33 34 34 35 35 35 34 32 30 29 30 30 30 29 30 26 21 19 17 18 17 17 17 18 21 23 23 24 24 26 27 26 26 25 24 24 22 22 22 21
28 30 30 31 31 32 33 33 34 34 30 32 34 33 31 31 31 28 26 22 19 17 17 16 17 17 21 22 21 22 23 25 26 27 27 25 23 22 21 18 19 20 20
29 29 29 31 31 32 33 33 34 34 36 36 37 36 33 32 30 27 24 22 21 19 19 18 19 21 20 22 22 22 22 24 25 25 26 25 22 20 18 18 18 18 19

GFSGL_500_spd_027.txt.gz
Wind_Speed
9 9 12 15 13 9 5 4 6 4 7 7 8 10 14 17 21 21 23 26 29 33 37 38 33 32 31 31 30 29 33 35 35 38 41 38 34 32 33 35 36 35 30
11 9 7 6 6 7 6 7 5 8 4 6 9 10 20 24 25 27 27 30 30 30 37 37 38 34 33 32 28 27 31 35 36 35 35 36 36 34 32 30 27 27 31
13 10 5 5 5 6 7 8 9 7 8 8 9 15 19 25 31 32 35 39 38 35 34 34 37 37 37 31 28 27 30 33 34 30 29 33 37 39 40 38 38 38 40
16 13 8 7 7 7 8 10 9 9 10 10 13 16 21 26 32 37 40 40 41 37 38 35 36 36 33 31 25 29 34 34 34 34 31 34 36 38 39 44 43 43 45
21 15 11 14 12 10 9 13 11 8 11 12 15 18 23 27 33 38 41 41 43 40 34 40 40 34 29 29 32 35 36 40 35 32 33 37 39 40 44 48 46 51 50
25 19 16 17 17 13 14 15 13 13 13 13 17 20 25 30 36 39 43 42 44 39 36 39 37 34 30 32 33 34 39 37 34 34 37 41 45 46 43 48 52 52 53
28 24 22 17 19 19 17 17 12 14 15 16 19 24 29 31 36 40 44 43 44 41 37 36 35 31 35 33 34 35 37 37 38 42 45 48 47 47 49 50 51 51 53
31 29 28 22 18 19 19 19 17 16 17 20 23 28 30 31 35 41 45 46 46 43 43 38 32 31 37 37 37 36 37 40 45 47 46 47 49 51 52 52 50 51 53
32 33 31 25 20 21 20 22 24 23 23 27 29 32 29 30 39 43 46 48 48 48 42 35 31 33 36 37 38 41 43 47 51 52 51 51 55 53 47 49 52 54 55
35 34 35 31 27 22 23 26 23 24 26 32 37 38 30 38 43 44 44 48 49 47 42 40 37 36 38 41 44 45 48 51 53 53 54 52 59 58 48 54 52 47 47
40 39 40 37 33 27 27 27 25 28 31 38 43 41 34 38 42 44 44 46 48 47 47 46 46 44 43 44 46 48 51 53 54 58 50 53 59 58 49 45 45 42 41
44 43 43 43 39 32 31 29 31 30 38 44 47 32 34 38 41 46 48 49 48 43 45 45 45 46 44 44 45 50 52 53 52 55 51 51 50 50 49 45 40 38 36
45 44 43 45 42 34 33 36 32 34 44 47 51 39 38 44 45 50 51 51 47 48 47 46 45 45 48 47 48 48 49 52 53 52 49 49 50 48 42 39 38 39 39
47 47 46 45 40 36 40 36 36 41 46 46 49 40 41 49 51 54 53 49 48 46 45 48 48 48 48 44 46 48 49 49 47 47 47 42 39 37 38 39 39 37 35
45 47 47 44 41 42 39 42 41 46 49 42 38 45 45 50 53 51 47 47 44 46 47 49 47 42 42 42 43 42 42 42 40 38 37 39 38 37 37 36 36 35 33
50 47 46 50 45 42 41 46 46 52 50 48 47 49 46 54 48 49 49 47 46 47 48 46 44 41 36 36 35 35 34 32 35 36 37 36 33 31 30 30 30 29 28
51 48 47 46 48 39 42 46 53 48 52 55 58 40 45 51 53 50 49 47 46 48 46 45 40 37 34 30 31 30 34 32 31 33 34 33 32 30 30 30 30 29 28
52 57 54 55 43 49 50 52 51 55 54 57 47 52 54 54 51 48 48 46 46 44 42 39 37 33 31 27 29 29 27 29 30 31 32 32 30 29 29 30 29 29 29
54 50 39 43 51 56 55 52 56 43 47 53 42 51 53 49 47 46 45 44 42 39 35 31 30 27 25 26 24 24 25 26 28 30 31 31 31 32 32 32 31 31 31
49 52 55 52 54 51 47 48 47 47 47 51 44 46 44 43 43 41 40 38 35 28 28 29 29 27 24 22 22 22 23 25 27 28 31 30 30 30 31 32 31 30 31
50 52 52 47 45 55 55 49 45 34 36 42 41 39 40 40 38 36 33 32 28 31 31 29 28 22 21 22 21 23 23 24 25 26 28 30 29 29 30 30 29 29 30
44 48 46 49 49 49 50 55 47 34 37 41 39 37 36 35 33 32 31 30 31 32 29 26 22 19 19 19 19 21 23 24 25 26 28 29 30 30 28 29 29 28 27
43 42 44 50 42 40 27 25 28 30 34 35 30 33 32 30 30 30 29 30 31 29 24 21 20 18 18 18 19 22 22 22 23 25 27 28 29 30 27 26 25 24 24
36 26 28 30 20 24 30 32 30 28 28 29 31 33 32 31 32 33 34 34 32 30 24 20 18 17 18 18 20 22 22 23 23 23 25 26 28 29 26 24 23 24 23
18 22 24 26 26 25 23 29 34 34 33 32 32 32 32 34 36 37 34 31 30 27 23 21 18 18 19 21 21 23 23 23 24 24 24 26 26 28 26 23 22 22 22
24 24 25 28 28 28 29 29 31 32 32 32 32 32 34 37 36 33 29 28 27 26 23 21 19 21 22 24 23 23 24 23 23 24 24 24 25 25 26 23 21 20 21

GFSGL_500_spd_030.txt.gz
Wind_Speed
11 11 9 13 14 16 16 16 14 10 4 5 4 3 3 4 7 9 14 18 23 24 25 26 29 31 32 31 29 27 22 20 20 25 31 32 33 26 23 24 27 26 28
13 10 9 9 9 18 20 17 13 7 6 5 4 4 3 5 12 12 18 24 27 28 29 32 29 30 34 31 29 25 20 20 21 23 29 30 30 24 22 19 21 24 23
15 12 11 7 10 16 20 16 15 12 11 9 6 5 5 8 13 18 21 25 30 32 33 33 31 31 33 31 26 25 23 26 29 29 28 33 32 34 34 36 35 34 33
15 12 10 11 11 13 16 16 16 16 14 12 10 6 5 8 13 18 21 23 27 30 32 32 31 33 34 34 28 26 28 32 33 33 35 34 34 35 35 37 39 40 42
17 19 13 15 16 18 16 17 18 17 18 15 14 9 7 9 14 19 23 27 30 33 35 35 34 35 36 33 28 29 30 31 33 32 33 32 34 36 40 43 46 48 47
20 22 23 19 21 19 17 20 19 19 20 19 16 12 11 12 16 21 25 27 31 32 36 38 40 38 34 33 29 32 32 33 34 36 35 36 36 41 45 49 51 51 50
28 29 26 26 22 20 23 23 23 22 23 21 18 16 16 18 21 24 28 31 34 34 37 40 39 35 33 31 32 34 34 33 34 36 39 42 44 50 52 54 55 55 54
29 31 29 29 26 24 24 25 25 26 26 22 19 20 22 24 28 31 32 34 36 37 41 42 40 38 38 36 35 35 37 38 40 42 44 48 50 53 55 56 58 58 59
32 31 32 31 31 28 25 24 26 28 31 28 25 24 25 29 31 25 31 35 37 39 41 42 40 36 38 39 38 37 38 42 44 46 48 50 53 54 56 58 58 56 56
40 34 33 32 34 33 30 27 28 33 34 32 29 27 30 33 31 28 30 34 37 42 46 44 41 38 37 38 39 41 40 44 45 49 50 53 55 53 54 57 55 49 46
33 33 35 36 37 36 36 36 33 35 37 37 34 32 35 33 40 36 32 36 39 43 48 44 40 40 39 40 42 43 43 43 48 51 55 55 53 52 52 50 48 46 43
46 43 40 37 42 44 43 42 41 41 45 41 44 45 32 36 37 39 39 45 43 44 49 41 40 41 39 42 43 44 44 46 50 50 51 50 50 48 47 45 43 42 41
58 55 51 48 48 47 50 50 49 49 50 50 54 42 36 36 41 46 42 41 44 45 44 43 40 42 43 42 44 43 44 45 46 45 43 43 42 41 42 43 44 44 43
57 58 59 61 65 61 51 57 57 58 58 57 40 31 37 39 44 45 49 48 47 45 46 45 44 44 45 44 42 42 41 40 40 40 38 38 41 41 41 41 42 41 39
66 69 68 60 56 58 56 60 60 70 57 59 41 34 44 48 47 48 49 52 49 47 51 47 46 44 42 41 41 39 38 35 35 34 37 35 37 37 37 37 36 34 32
55 59 59 69 60 56 61 62 66 62 26 19 33 41 46 49 55 51 52 53 42 48 50 44 44 43 39 37 36 35 34 33 32 32 31 31 32 35 36 35 35 34 32
51 55 60 62 59 54 54 62 71 47 28 36 41 44 43 48 56 57 50 42 41 44 44 43 41 37 34 33 34 34 31 30 28 28 28 31 32 34 36 36 36 35 35
54 52 53 49 60 38 58 63 62 32 33 40 50 45 49 54 54 55 50 43 45 44 42 38 35 32 31 35 34 33 29 26 25 25 28 31 32 34 34 35 35 34 34
49 26 28 31 39 47 55 56 47 43 41 46 46 54 58 53 53 55 41 38 41 41 38 34 30 30 33 33 32 28 26 23 23 26 30 32 33 34 34 34 35 34 33
35 36 36 35 40 46 51 52 45 44 46 46 48 49 50 53 49 48 40 36 38 39 34 30 30 32 34 32 28 26 23 21 23 25 27 29 32 33 34 34 34 32 32
34 37 38 41 42 43 44 51 49 42 35 45 55 53 55 47 41 36 34 34 33 31 28 28 31 33 31 27 25 21 17 20 23 24 26 28 30 31 31 33 32 30 29
32 34 36 39 41 43 40 37 48 45 51 51 54 55 57 38 34 34 36 32 28 28 28 31 31 31 28 26 21 17 17 20 21 23 25 26 28 29 30 32 31 29 29
35 38 39 41 42 42 43 43 44 42 46 50 34 28 32 32 33 30 31 29 27 29 32 33 32 30 27 24 20 16 16 18 20 23 24 26 27 28 29 30 30 28 29
39 41 48 45 45 47 50 49 43 37 31 29 30 27 29 28 29 28 28 27 27 30 31 31 29 28 27 24 19 16 18 20 21 23 24 26 27 27 28 29 29 28 27
45 52 51 55 58 58 45 29 29 33 39 28 26 29 32 32 29 29 28 28 29 31 31 29 27 28 29 26 21 19 21 22 22 22 24 25 26 26 27 28 28 28 26
27 26 25 26 27 30 28 28 29 29 31 35 39 36 33 30 32 32 30 30 31 30 29 30 28 27 30 26 23 22 23 23 22 22 23 25 25 25 25 26 26 27 27

GFSGL_500_spd_033.txt.gz
Wind_Speed
9 9 10 12 14 17 20 22 18 18 18 13 13 10 9 7 5 6 7 10 14 18 21 25 28 28 26 25 26 27 24 20 18 19 18 19 19 20 21 22 22 22 21
12 10 11 12 12 14 20 22 20 21 20 14 15 13 12 11 9 7 9 12 17 20 20 26 26 27 26 26 27 28 28 28 25 26 27 26 26 26 21 18 21 23 24
14 12 12 12 13 13 19 24 23 23 20 17 17 17 13 12 9 7 8 11 12 18 19 22 25 28 30 31 29 28 25 26 29 29 29 29 31 31 29 25 25 29 30
16 13 10 10 13 12 17 23 24 24 23 20 20 20 15 12 12 11 12 16 19 21 23 25 26 28 33 36 31 30 25 22 26 31 31 31 33 34 36 37 36 37 38
21 18 9 12 13 17 16 19 20 23 21 22 23 21 19 17 16 15 18 21 22 21 23 25 27 32 36 36 30 27 26 27 29 29 30 31 34 36 39 40 41 43 45
25 19 15 14 15 17 19 24 25 26 27 27 26 26 24 22 19 19 23 24 26 26 26 26 30 34 35 37 34 31 29 30 34 35 36 35 37 41 43 44 47 48 52
23 25 21 19 20 20 21 24 25 25 28 27 31 32 31 27 23 22 25 23 27 29 28 31 33 33 37 39 34 29 29 33 33 35 36 39 40 44 47 49 51 55 56
27 31 30 26 24 26 27 25 24 30 30 31 30 32 32 30 25 26 28 24 28 28 29 32 37 36 39 38 32 33 32 35 37 37 39 41 46 49 49 51 52 56 60
34 37 34 32 30 27 32 31 28 27 33 34 34 35 36 33 32 33 29 27 26 28 30 36 37 37 37 36 37 36 36 38 40 40 43 45 46 46 50 53 56 55 54
43 38 37 36 34 34 31 38 36 34 32 35 38 41 41 42 40 40 34 34 36 34 32 34 35 37 37 39 38 40 39 43 43 44 42 42 47 51 53 52 49 48 47
46 43 42 38 39 35 34 37 43 41 40 38 41 45 45 44 43 44 43 41 40 40 37 37 39 39 39 40 39 39 41 43 42 43 44 44 48 47 45 45 43 43 45
38 36 44 44 40 40 38 39 43 48 46 46 50 51 52 50 49 53 54 37 45 43 39 38 38 36 35 40 39 41 43 43 44 43 41 43 42 42 39 40 41 42 44
53 50 44 46 46 48 48 56 49 51 53 54 57 60 58 57 61 64 57 37 34 47 40 41 45 48 39 39 40 44 44 44 41 38 38 38 39 38 37 37 37 40 41
47 48 47 51 55 59 54 56 57 60 55 60 62 65 65 68 63 69 49 42 42 50 39 40 44 41 41 42 43 43 41 39 37 37 37 37 36 36 33 35 36 39 39
56 58 58 60 65 63 64 67 66 66 67 68 67 64 59 64 62 57 32 35 38 46 39 40 45 37 39 40 43 39 36 35 36 36 35 33 33 32 35 38 38 39 39
57 63 69 68 65 66 67 70 73 72 74 77 71 74 73 43 28 19 26 34 37 39 39 42 39 34 36 39 37 29 34 35 36 34 30 30 30 33 36 38 39 39 39
56 62 65 70 72 73 66 67 72 73 78 66 70 69 46 61 57 26 34 31 37 42 47 35 34 36 38 36 30 29 34 35 34 29 26 29 32 35 36 37 38 38 39
54 53 66 71 78 82 82 69 67 48 23 43 58 24 34 41 36 35 31 30 38 46 46 33 33 35 35 30 27 31 34 33 31 26 26 30 32 32 33 35 35 36 38
41 50 53 43 54 58 44 47 32 27 41 30 26 28 30 33 33 35 40 40 36 31 32 31 32 30 27 27 30 31 30 30 27 22 25 26 29 29 31 33 34 35 37
31 31 31 17 21 31 38 25 19 21 21 21 25 28 33 36 34 35 41 43 36 36 30 31 28 25 24 29 31 30 28 28 23 20 24 26 26 26 29 32 34 34 36
27 22 20 21 25 27 25 23 21 23 25 25 26 29 30 34 40 43 43 41 37 30 29 27 24 25 28 31 30 31 28 25 20 21 23 24 24 25 28 31 32 32 34
27 28 27 23 23 24 27 28 26 25 26 25 30 32 34 38 41 44 39 31 28 25 26 25 24 26 31 30 29 28 25 23 21 21 22 24 23 24 26 28 30 32 32
30 29 28 27 28 26 24 26 30 33 33 33 35 36 39 35 29 27 27 26 27 27 26 26 28 29 31 29 27 25 23 22 20 21 23 25 24 23 24 26 28 30 31
31 31 33 33 30 32 32 35 38 37 39 42 38 40 46 33 32 25 26 26 28 28 27 28 29 31 32 30 24 23 23 23 22 22 23 26 24 23 24 25 26 27 29
36 34 37 43 39 39 42 42 42 45 43 34 32 34 31 31 30 27 29 30 31 33 31 30 32 32 31 29 24 25 26 26 25 24 25 26 24 24 24 25 25 25 26
44 47 50 58 56 39 39 36 29 30 23 18 28 33 38 34 33 35 35 35 34 34 34 34 34 33 30 27 25 26 27 27 28 28 27 27 25 25 24 25 25 25 26

GFSGL_500_spd_036.txt.gz
Wind_Speed
13 12 12 13 16 19 20 23 24 24 21 20 21 18 16 14 11 8 7 9 9 10 12 14 16 19 19 20 24 25 26 23 21 17 16 18 19 19 20 20 21 21 21
15 13 11 12 13 13 16 21 24 24 24 23 23 19 18 16 14 10 8 11 9 9 14 17 17 19 20 23 27 27 21 23 22 19 20 22 23 24 26 28 26 27 27
19 15 15 13 13 15 15 18 23 26 24 26 22 19 20 19 18 14 12 12 12 14 15 17 18 18 21 25 28 29 26 24 20 20 22 25 28 30 31 32 34 33 33
22 19 15 12 12 14 16 16 18 26 26 27 23 22 22 22 21 20 18 14 15 17 18 17 18 19 24 28 30 30 28 24 22 22 25 27 30 33 32 34 36 41 43
27 22 14 13 11 10 13 15 16 20 26 27 28 25 25 24 25 24 23 20 19 19 22 21 20 19 24 28 29 30 28 24 23 21 25 28 33 39 39 38 38 40 42
25 19 17 18 15 12 12 17 18 18 23 27 28 26 27 27 28 28 26 24 22 22 24 23 22 23 26 30 29 28 24 26 26 28 30 31 35 40 42 43 43 44 48
24 24 23 23 21 15 16 17 19 21 26 28 29 31 28 28 30 31 30 28 28 26 27 28 27 26 28 28 29 29 28 27 29 31 32 37 39 43 45 47 49 48 47
26 31 29 27 25 22 21 21 22 24 26 29 29 29 29 29 33 35 37 37 33 29 31 30 30 28 29 27 31 32 32 32 32 32 35 39 42 45 49 49 49 49 51
27 32 33 32 32 34 34 23 23 32 31 28 30 36 36 35 35 38 43 44 40 35 37 37 34 33 31 33 34 34 33 33 34 34 38 41 44 46 47 48 48 48 43
33 33 35 34 39 39 35 28 28 31 36 39 37 35 39 40 43 44 45 45 44 44 45 44 42 42 38 37 38 38 37 38 35 37 39 43 45 44 41 39 39 40 37
29 36 40 39 41 41 42 42 37 39 40 41 46 44 43 45 49 52 54 48 47 51 51 52 46 48 45 44 41 40 38 35 36 38 42 44 41 38 35 37 37 37 34
33 39 40 39 39 45 39 43 41 48 41 40 45 51 51 50 55 58 59 57 57 57 54 56 48 53 52 50 35 36 35 37 37 39 41 39 38 37 34 32 34 33 35
42 42 41 45 43 41 42 44 48 46 50 51 52 46 49 57 60 68 67 72 71 69 61 57 47 46 47 39 35 34 35 37 36 36 35 36 36 34 29 28 30 33 36
50 51 52 49 47 48 51 50 51 52 60 58 54 55 58 57 61 65 66 57 65 78 65 44 29 40 44 40 40 34 37 35 32 32 33 34 35 28 25 27 31 34 38
57 55 53 50 50 52 53 55 52 58 62 66 58 68 62 70 70 71 74 48 46 56 58 41 25 31 39 38 40 31 34 30 30 29 31 34 29 23 25 29 30 34 38
46 46 46 50 54 56 58 61 62 65 66 69 72 74 72 78 79 84 74 76 69 66 33 19 25 32 37 35 30 30 28 27 28 28 32 29 22 23 25 27 29 33 38
52 52 51 50 51 55 60 61 64 68 74 79 83 80 77 76 48 87 79 70 73 81 30 22 26 28 31 25 28 28 25 24 27 30 28 24 20 23 24 26 28 33 37
50 48 47 49 53 59 61 64 67 67 73 78 84 91 92 84 46 20 14 21 21 13 23 27 30 33 31 26 27 24 23 24 27 27 22 20 20 21 22 24 28 33 36
49 46 46 47 48 47 49 54 58 62 71 77 85 51 74 73 58 11 10 16 12 17 25 25 28 29 27 24 24 22 23 26 26 22 19 18 18 20 21 23 27 31 34
45 42 41 44 41 38 34 33 34 32 32 9 15 3 13 23 16 11 15 14 16 25 27 29 32 26 21 23 22 23 25 24 23 19 17 15 16 19 20 22 26 29 32
45 44 41 38 34 30 28 25 22 9 6 11 12 8 4 4 9 14 15 17 23 27 27 27 24 22 22 22 23 24 24 22 20 18 16 15 17 18 20 22 25 27 31
43 40 35 32 27 23 21 19 15 13 8 8 11 13 12 14 15 19 22 26 26 20 23 21 21 21 22 24 23 24 22 21 19 16 17 18 17 18 21 24 25 27 29
45 37 33 30 27 25 22 15 17 14 15 18 18 18 21 25 28 29 27 29 26 22 22 21 21 22 22 24 24 25 24 21 17 17 19 19 20 20 21 25 26 26 27
39 37 28 25 27 24 21 21 23 23 25 23 27 31 31 31 36 28 25 26 22 21 21 20 21 22 25 25 25 25 24 20 18 20 21 22 22 23 24 25 27 27 27
31 31 29 25 31 35 32 28 34 38 41 30 33 36 30 24 20 24 22 19 23 24 21 20 23 23 24 26 26 26 23 21 22 21 21 24 26 26 26 27 28 27 27
33 34 35 35 38 40 42 36 37 39 37 30 23 23 19 18 17 18 22 21 24 28 28 25 27 28 28 27 27 26 24 23 23 23 24 27 29 30 28 27 28 27 27

GFSGL_500_spd_042.txt.gz
Wind_Speed
18 16 18 20 22 24 24 23 23 24 23 24 23 23 21 17 17 14 12 10 6 4 6 8 13 13 9 8 11 13 13 15 14 13 14 14 16 19 20 20 21 23 25
20 19 16 17 16 16 18 20 22 22 25 26 28 26 27 22 21 18 15 13 9 7 8 12 14 15 13 9 10 12 14 15 15 11 13 14 18 18 21 23 25 27 29
24 21 17 16 16 16 18 19 17 17 18 21 23 26 28 25 23 22 18 17 14 12 10 12 15 18 19 15 14 14 13 16 16 15 15 15 16 19 21 25 27 30 31
24 25 17 14 16 19 19 17 14 17 16 17 20 24 26 27 25 24 20 20 20 18 16 16 17 20 19 18 17 18 16 15 17 19 21 21 23 26 28 29 30 32 35
20 24 20 19 17 20 23 15 14 13 13 14 16 18 21 25 26 24 20 21 23 23 23 21 22 24 24 23 22 21 21 21 22 24 28 29 31 32 34 37 35 36 39
20 15 23 22 18 18 22 18 15 10 9 10 12 14 15 18 22 24 23 20 21 25 27 27 28 28 27 29 28 25 26 28 30 32 36 37 37 38 39 41 39 41 42
22 21 21 23 20 22 25 24 19 16 15 14 13 13 13 13 18 22 26 26 25 26 27 27 29 30 30 30 32 34 33 35 37 37 43 45 43 44 47 44 43 44 44
29 25 23 21 23 25 27 25 25 24 21 20 22 21 19 18 17 19 23 28 27 28 30 31 31 33 30 32 36 37 38 42 46 45 47 48 53 51 48 45 44 44 45
34 27 23 19 22 26 27 25 27 28 28 30 29 26 25 25 25 29 32 36 37 36 36 39 41 40 41 39 40 41 45 48 51 52 53 51 54 50 49 46 45 43 45
39 31 24 23 23 27 31 33 33 34 36 36 37 38 39 37 31 35 37 43 47 45 42 47 53 52 53 52 54 51 51 56 62 58 55 55 48 54 51 46 45 45 45
31 29 29 28 28 32 34 35 38 40 44 44 46 50 45 46 44 40 41 44 48 49 53 59 60 55 57 65 69 66 62 71 65 67 62 53 50 46 49 46 42 44 45
34 33 31 34 35 35 37 39 40 44 43 45 48 57 66 56 42 41 51 46 37 40 47 57 64 63 67 74 80 75 73 77 78 67 59 41 44 44 50 39 39 42 42
35 35 35 36 38 39 38 38 42 43 42 45 54 54 51 60 51 47 50 47 42 45 47 53 61 69 78 73 64 90 77 72 75 60 55 46 43 48 39 34 36 40 39
35 37 38 40 41 40 38 38 43 45 45 48 51 52 56 60 58 58 51 47 51 47 55 60 64 69 74 65 61 69 63 59 61 62 45 37 40 40 34 31 35 38 37
37 38 40 42 44 44 44 41 42 47 49 52 53 59 58 58 56 56 57 58 59 63 64 66 71 74 81 74 73 61 67 76 72 69 37 32 37 32 32 30 34 34 35
36 39 42 45 47 48 49 49 48 51 56 59 61 63 53 52 54 52 52 55 59 67 73 74 78 82 77 79 79 82 75 76 34 30 26 29 30 31 30 31 32 33 32
38 41 48 50 52 53 55 55 55 55 54 55 56 58 55 50 51 52 55 57 59 62 69 71 77 75 74 71 72 72 35 30 20 22 24 31 31 30 29 29 31 31 29
39 40 41 43 43 45 47 50 52 53 56 56 55 53 48 50 52 50 52 53 58 62 67 66 71 63 46 42 38 23 18 26 21 25 32 32 28 28 28 28 30 30 27
46 44 44 43 47 51 54 55 57 57 55 53 50 48 45 48 51 51 51 54 55 57 60 55 34 29 31 21 25 22 18 25 30 33 32 26 27 28 27 28 29 28 27
54 53 53 54 51 51 51 53 55 55 52 47 44 47 45 46 47 49 48 44 41 31 22 20 25 22 19 21 22 24 26 28 29 27 26 27 28 27 26 28 29 28 29
59 58 57 55 55 53 52 53 51 48 46 44 44 43 42 40 41 41 40 33 34 22 20 10 8 11 14 18 25 28 28 28 27 27 29 29 26 26 27 29 29 30 30
64 61 57 58 55 56 55 52 49 44 39 41 41 40 38 36 36 32 31 21 16 12 14 12 15 17 21 27 31 29 29 29 28 28 29 27 27 27 29 29 29 32 31
64 61 61 55 56 53 51 46 45 41 38 39 41 40 38 35 34 33 29 27 21 20 21 22 24 26 26 29 29 29 29 27 27 28 26 26 27 29 30 29 31 32 30
47 53 55 55 51 45 43 41 38 39 37 39 42 42 43 41 40 39 35 31 30 33 32 33 35 36 35 31 29 28 29 28 28 26 25 28 29 30 30 31 32 31 30
50 50 51 51 47 43 43 40 38 37 38 41 43 45 46 45 44 42 39 40 39 37 39 38 39 36 32 27 28 28 28 27 26 24 26 27 29 31 31 32 32 32 32
41 40 39 40 41 43 46 46 44 42 41 42 44 42 44 45 46 45 43 44 44 41 41 35 33 30 27 27 28 25 24 25 24 26 29 29 30 31 31 32 33 34 35

GFSGL_500_spd_045.txt.gz
Wind_Speed
20 20 19 18 18 19 20 22 24 25 22 19 18 18 19 19 17 15 15 14 12 9 8 6 8 11 13 13 13 13 13 13 13 13 12 14 16 16 19 21 23 25 27
19 19 17 16 13 11 11 15 19 21 22 21 20 21 21 22 20 18 18 16 17 14 11 10 9 10 12 17 15 14 14 16 15 15 13 14 20 19 21 23 27 30 32
20 21 21 16 12 10 12 14 15 16 18 16 15 17 19 21 21 20 19 19 17 17 13 13 11 12 14 15 17 17 17 19 20 18 18 19 22 22 26 27 30 31 33
16 11 13 19 14 12 14 14 13 14 14 14 14 15 15 15 18 20 19 19 15 18 20 19 19 19 18 20 21 22 18 22 20 22 24 27 27 27 29 29 30 31 36
17 12 9 13 19 16 15 16 16 16 16 13 11 10 11 12 10 10 13 16 17 18 24 26 26 26 25 25 26 27 28 26 28 26 30 33 35 33 34 36 38 41 43
17 13 14 13 18 18 17 19 18 15 14 13 7 7 7 7 8 10 12 15 20 21 22 25 31 30 31 32 31 32 30 32 33 37 37 39 41 43 43 42 40 42 44
18 17 18 18 15 15 20 22 22 18 18 16 13 12 11 10 12 14 17 19 21 22 24 26 24 26 27 31 31 33 33 32 35 39 43 45 47 45 49 50 45 44 43
27 23 21 22 18 16 18 22 24 24 21 21 20 20 18 17 18 19 21 24 25 25 25 26 25 27 31 35 38 38 40 40 40 45 50 51 51 53 47 50 49 48 49
33 31 27 29 28 26 19 23 26 29 26 24 25 26 26 26 27 28 30 31 32 34 32 34 35 39 41 42 46 47 49 49 50 50 60 58 60 54 48 51 48 51 56
36 36 37 35 30 25 24 24 27 28 30 33 32 29 28 29 31 37 43 47 43 39 35 44 39 42 52 56 54 58 59 58 65 66 64 69 63 64 58 42 53 46 48
46 44 40 37 36 31 28 26 25 25 29 30 33 34 35 35 38 42 53 62 32 51 34 41 40 45 48 47 50 63 67 69 74 81 77 68 65 65 71 66 64 53 45
48 46 42 37 34 31 32 31 29 28 30 34 34 37 41 42 42 46 55 55 47 50 47 50 48 43 49 51 54 67 75 72 68 63 73 70 68 71 78 72 51 39 41
33 34 36 36 34 34 34 34 34 33 35 39 39 43 45 45 45 49 45 47 49 56 54 60 59 53 57 62 64 70 76 72 76 42 50 60 55 58 67 67 41 35 36
34 35 34 36 38 37 37 35 37 41 43 42 41 44 46 47 49 50 51 53 58 53 59 63 62 62 64 67 69 70 75 77 48 74 71 66 64 59 47 44 39 28 33
36 38 39 38 39 41 42 41 42 44 46 43 45 42 45 47 50 50 52 53 55 60 62 63 60 59 65 70 72 70 72 70 73 73 72 65 59 48 47 33 22 26 30
36 37 40 43 43 43 43 44 45 45 44 47 48 48 51 52 54 56 59 55 50 53 59 58 59 62 64 64 64 66 70 72 70 69 59 46 51 35 21 16 21 25 28
39 40 41 43 43 45 45 46 48 49 50 51 55 58 58 60 60 57 56 55 54 53 57 59 58 59 63 67 69 68 65 64 51 41 35 19 19 14 18 24 26 25 25
37 38 39 39 42 44 45 47 49 52 55 58 60 63 64 61 58 59 59 52 50 52 55 55 56 56 62 62 57 53 45 43 35 24 20 17 14 24 26 25 24 24 23
41 38 39 42 45 47 48 51 54 56 57 56 59 60 61 63 62 62 49 50 51 51 52 51 50 54 53 43 37 45 39 36 22 22 18 18 26 29 28 28 24 24 24
43 46 48 49 50 51 51 52 54 55 55 55 57 53 53 56 56 51 51 48 49 47 43 43 42 30 34 30 34 30 25 22 17 21 24 28 32 32 29 28 26 24 26
52 54 53 56 56 56 56 57 59 57 58 59 54 54 54 53 49 48 46 43 42 41 38 38 30 29 26 20 19 15 17 20 18 24 27 31 32 32 30 27 26 26 28
60 59 60 61 62 60 60 61 62 63 63 59 57 55 53 51 47 45 42 38 38 38 38 32 28 16 13 10 15 21 24 27 30 33 34 34 32 30 27 27 27 29 29
65 64 62 60 59 58 60 65 68 68 68 64 62 58 54 51 44 43 41 39 37 39 39 37 30 25 24 24 25 27 30 34 34 36 36 34 32 30 27 28 31 30 30
68 66 64 63 66 65 70 62 75 65 63 65 57 52 47 47 46 45 44 44 45 44 43 42 38 33 31 32 34 38 39 37 38 39 36 32 31 29 31 32 31 29 30
68 68 63 60 64 54 52 51 48 51 56 57 56 51 45 43 45 45 44 46 48 47 46 46 44 43 41 40 41 40 40 39 36 34 35 31 32 31 35 32 30 30 31
65 61 53 56 55 52 49 52 51 51 51 50 52 52 47 46 46 46 46 48 44 45 44 46 47 47 46 46 43 41 37 35 33 32 31 31 31 31 33 31 30 32 33

GFSGL_500_spd_048.txt.gz
Wind_Speed
17 17 15 15 14 13 14 15 17 18 17 15 15 15 16 15 13 13 11 12 11 11 9 9 10 10 10 9 11 11 13 15 18 16 15 16 17 17 18 20 23 25 27
20 19 17 15 12 9 9 9 8 8 10 12 12 16 17 19 17 15 13 11 13 12 13 12 13 13 10 12 13 13 15 16 18 21 19 18 22 25 23 23 26 25 26
22 17 14 14 12 9 9 9 6 6 10 9 11 13 13 13 13 12 13 12 14 16 18 17 17 15 16 14 16 16 18 21 21 23 21 21 20 23 26 29 29 31 31
16 15 13 12 14 12 10 10 7 8 8 9 10 11 12 11 10 11 12 12 13 18 18 19 22 21 20 21 21 23 24 22 27 28 31 33 32 30 29 29 32 32 36
17 14 10 9 10 12 11 9 8 9 10 10 9 9 8 9 8 9 9 11 14 17 19 20 23 25 26 27 29 32 30 30 31 32 32 34 39 42 41 38 39 41 35
20 16 15 12 9 11 13 12 8 11 10 11 12 9 8 9 9 9 11 14 17 19 19 21 21 24 27 30 34 34 37 36 36 37 36 36 40 46 51 51 46 44 48
22 17 13 12 11 11 11 10 11 14 13 13 14 11 9 8 11 12 14 15 16 18 21 22 24 25 28 29 31 35 36 37 39 41 44 46 47 47 52 54 53 56 52
21 20 17 14 12 14 15 14 15 17 16 14 15 16 14 13 15 18 21 23 24 26 26 21 28 29 34 33 36 39 43 45 46 50 53 54 58 62 64 64 59 57 58
24 21 21 18 17 19 22 21 21 21 21 18 18 18 17 16 17 19 24 29 31 33 34 42 24 22 29 32 41 47 49 49 53 57 62 64 66 71 75 74 71 70 66
29 27 27 26 25 27 27 26 25 24 23 23 23 21 19 19 22 23 25 31 35 40 47 36 44 40 34 34 34 40 45 46 53 56 63 66 70 74 78 58 48 64 73
30 33 33 31 31 33 35 32 28 28 26 24 23 22 23 23 23 27 30 34 34 36 44 41 41 44 50 44 48 47 44 46 52 59 63 73 77 74 77 50 48 43 52
35 36 37 37 36 38 39 34 31 31 31 31 29 28 27 28 31 32 34 36 36 39 42 45 46 50 54 49 52 56 53 55 58 56 59 68 87 81 56 52 55 39 44
29 31 37 40 42 42 40 35 35 33 32 32 31 30 31 33 35 39 41 39 41 43 44 50 52 52 50 51 51 55 62 63 60 59 58 59 35 52 67 65 51 31 40
29 30 30 29 33 36 35 36 36 36 34 34 34 35 37 38 41 42 39 41 44 47 49 52 51 49 50 55 60 61 63 66 63 61 62 59 55 61 63 60 29 32 33
34 33 34 34 34 37 39 37 38 38 38 37 38 40 41 43 45 47 46 46 47 49 53 54 53 51 49 54 60 64 63 65 64 62 63 61 58 64 57 34 32 33 38
37 38 38 38 37 38 40 41 41 41 42 43 43 45 44 47 47 48 50 53 54 55 56 56 54 53 54 58 58 58 59 61 65 65 63 55 54 55 49 27 30 23 17
37 39 40 40 38 39 38 40 41 43 45 46 47 48 49 50 52 54 55 58 60 63 61 54 58 59 58 59 58 57 57 53 55 62 57 51 49 52 28 22 17 14 15
44 42 42 43 42 44 43 43 44 45 47 49 50 51 54 56 56 57 61 63 62 59 58 57 57 57 58 58 52 51 49 51 54 45 48 52 32 28 26 19 15 14 19
46 46 46 46 44 45 43 43 47 49 50 50 54 56 57 59 61 62 59 58 55 52 51 51 50 51 52 46 46 44 49 49 44 38 34 26 26 21 19 14 18 22 23
46 47 49 48 49 48 48 51 51 52 54 56 59 59 60 59 57 56 57 53 51 49 47 51 48 44 40 38 37 34 34 33 28 21 16 10 8 17 16 23 25 25 26
51 51 51 52 52 53 54 54 56 56 58 58 58 58 58 60 59 55 58 55 56 52 48 47 43 40 36 36 32 34 29 19 13 7 14 14 16 23 28 30 30 26 26
51 53 56 58 57 58 59 61 63 65 63 62 60 61 59 60 61 61 63 63 59 50 47 43 41 39 35 36 35 30 28 26 26 23 18 22 28 31 32 31 29 29 26
57 57 60 59 61 64 67 67 68 66 65 63 62 62 63 64 65 68 71 69 59 50 47 45 42 42 39 38 38 37 33 32 30 31 33 31 34 37 33 30 29 27 29
60 64 66 66 68 68 65 63 64 65 66 66 65 65 68 70 71 68 66 62 59 50 49 46 44 43 42 44 43 43 44 40 38 39 39 40 41 39 37 31 30 29 29
68 70 69 70 68 67 65 64 62 63 64 65 67 71 70 60 59 54 48 50 55 52 48 47 45 44 46 46 46 43 44 45 44 41 41 41 41 36 33 33 31 30 29
67 68 69 69 68 65 64 65 67 68 68 69 70 61 59 61 61 55 49 49 52 51 50 49 48 45 44 45 45 44 46 47 47 46 46 45 41 37 33 33 31 31 30